START_TIME,STEP,MOV.,AL01,t_acc.,AL02,t_acc.,E37,t_acc.,H21,t_acc.
1979-07-15 15:00:34.520 ,1,0,0.,24.0,0.,24.0,1.,24.0,0.,24.0
1979-07-15 15:00:58.520 ,2,1,0.,24.0,0.,24.0,2.,24.0,0.,24.0
1979-07-15 15:01:22.520 ,2,0,0.,24.0,2.,24.0,3.,24.0,0.,24.0
1979-07-15 15:01:46.520 ,3,1,1.,24.0,0.,24.0,0.,24.0,0.,24.0
1979-07-15 15:02:10.520 ,3,0,0.,24.0,0.,24.0,1.,24.0,0.,24.0
1979-07-15 15:02:34.520 ,4,1,1.,24.0,0.,24.0,0.,24.0,0.,24.0
1979-07-15 15:02:58.520 ,4,0,0.,24.0,1.,24.0,1.,24.0,0.,24.0
1979-07-15 15:03:22.520 ,5,1,2.,24.0,1.,24.0,0.,24.0,0.,24.0
1979-07-15 15:03:46.520 ,5,0,1.,24.0,0.,24.0,0.,24.0,0.,24.0
1979-07-15 15:04:10.520 ,6,1,1.,24.0,0.,24.0,1.,24.0,0.,24.0
1979-07-15 15:04:34.520 ,6,0,0.,24.0,0.,24.0,2.,24.0,0.,24.0
1979-07-15 15:04:58.520 ,7,1,4.,24.0,0.,24.0,3.,24.0,0.,24.0
1979-07-15 15:05:22.520 ,7,0,30.,24.0,0.,24.0,2.,24.0,0.,24.0
1979-07-15 15:05:46.520 ,7,1,44.,24.0,0.,24.0,1.,24.0,0.,24.0
1979-07-15 15:06:10.520 ,7,0,25.,24.0,0.,24.0,2.,24.0,0.,24.0
1979-07-15 15:06:34.520 ,6,1,20.,24.0,0.,24.0,0.,24.0,0.,24.0
1979-07-15 15:06:58.520 ,6,0,0.,24.0,0.,24.0,1.,24.0,0.,24.0
1979-07-15 15:07:22.520 ,5,1,1.,24.0,0.,24.0,1.,24.0,0.,24.0
1979-07-15 15:07:46.520 ,5,0,0.,24.0,1.,24.0,0.,24.0,0.,24.0
1979-07-15 15:08:10.510 ,4,1,1.,24.0,1.,24.0,0.,24.0,0.,24.0
1979-07-15 15:08:34.520 ,4,0,0.,24.0,0.,24.0,0.,24.0,0.,24.0
1979-07-15 15:08:58.520 ,3,1,0.,24.0,0.,24.0,1.,24.0,0.,24.0
1979-07-15 15:09:22.520 ,3,0,2.,24.0,1.,24.0,1.,24.0,0.,24.0
1979-07-15 15:10:10.520 ,2,0,1.,24.0,0.,24.0,1.,24.0,0.,24.0
1979-07-15 15:10:34.520 ,1,1,0.,24.0,0.,24.0,1.,24.0,0.,24.0
1979-07-15 15:10:58.520 ,1,0,0.,24.0,0.,24.0,1.,24.0,0.,24.0
1979-07-15 15:11:22.520 ,0,1,1.,24.0,0.,24.0,0.,24.0,0.,24.0
1979-07-15 15:11:46.520 ,0,0,1.,24.0,0.,24.0,4.,24.0,0.,24.0
1979-07-15 15:12:10.520 ,0,1,1.,24.0,0.,24.0,2.,24.0,0.,24.0
1979-07-15 15:12:34.520 ,0,0,2.,24.0,0.,24.0,0.,24.0,0.,24.0
1979-07-15 15:12:58.520 ,1,1,0.,24.0,0.,24.0,1.,24.0,0.,24.0
1979-07-15 15:13:22.520 ,1,0,0.,24.0,0.,24.0,3.,24.0,0.,24.0
1979-07-15 15:13:46.520 ,2,1,0.,24.0,0.,24.0,2.,24.0,0.,24.0
1979-07-15 15:14:10.520 ,2,0,0.,24.0,0.,24.0,1.,24.0,0.,24.0
1979-07-15 15:14:34.520 ,3,1,0.,24.0,0.,24.0,0.,24.0,0.,24.0
1979-07-15 15:14:58.520 ,3,0,0.,24.0,1.,24.0,0.,24.0,0.,24.0
1979-07-15 15:15:22.520 ,4,1,1.,24.0,0.,24.0,1.,24.0,0.,24.0
1979-07-15 15:15:46.520 ,4,0,1.,24.0,1.,24.0,1.,24.0,0.,24.0
1979-07-15 15:16:10.520 ,5,1,1.,24.0,0.,24.0,1.,24.0,0.,24.0
1979-07-15 15:16:34.520 ,5,0,0.,24.0,0.,24.0,0.,24.0,0.,24.0
1979-07-15 15:16:58.520 ,6,1,0.,24.0,0.,24.0,0.,24.0,0.,24.0
1979-07-15 15:17:22.520 ,6,0,0.,24.0,1.,24.0,1.,24.0,0.,24.0
1979-07-15 15:17:46.520 ,7,1,8.,24.0,0.,24.0,0.,24.0,0.,24.0
1979-07-15 15:18:10.520 ,7,0,28.,24.0,0.,24.0,0.,24.0,0.,24.0
1979-07-15 15:18:34.520 ,7,1,25.,24.0,0.,24.0,1.,24.0,0.,24.0
1979-07-15 15:18:58.520 ,7,0,26.,24.0,0.,24.0,1.,24.0,0.,24.0
1979-07-15 15:19:22.520 ,6,1,23.,24.0,0.,24.0,1.,24.0,0.,24.0
1979-07-15 15:20:10.520 ,5,1,1.,24.0,2.,24.0,1.,24.0,0.,24.0
1979-07-15 15:20:34.520 ,5,0,0.,24.0,0.,24.0,0.,24.0,0.,24.0
1979-07-15 15:20:58.520 ,4,1,2.,24.0,0.,24.0,0.,24.0,0.,24.0
1979-07-15 15:21:22.520 ,4,0,0.,24.0,1.,24.0,2.,24.0,0.,24.0
1979-07-15 15:21:46.520 ,3,1,2.,24.0,0.,24.0,0.,24.0,0.,24.0
1979-07-15 15:22:10.520 ,3,0,0.,24.0,3.,24.0,1.,24.0,0.,24.0
1979-07-15 15:22:34.520 ,2,1,1.,24.0,0.,24.0,2.,24.0,0.,24.0
1979-07-15 15:22:58.520 ,2,0,0.,24.0,0.,24.0,2.,24.0,0.,24.0
1979-07-15 15:23:22.520 ,1,1,1.,24.0,0.,24.0,1.,24.0,0.,24.0
1979-07-15 15:23:46.520 ,1,0,0.,24.0,1.,24.0,1.,24.0,0.,24.0
1979-07-15 15:24:10.520 ,0,1,1.,24.0,0.,24.0,4.,24.0,0.,24.0
1979-07-15 15:24:34.520 ,0,0,0.,24.0,2.,24.0,6.,24.0,0.,24.0
1979-07-15 15:24:58.520 ,0,1,0.,24.0,0.,24.0,1.,24.0,0.,24.0
1979-07-15 15:25:22.520 ,0,0,0.,24.0,0.,24.0,3.,24.0,0.,24.0
1979-07-15 15:25:46.520 ,1,1,0.,24.0,0.,24.0,3.,24.0,0.,24.0
1979-07-15 15:26:10.520 ,1,0,0.,24.0,0.,24.0,2.,24.0,0.,24.0
1979-07-15 15:26:34.520 ,2,1,0.,24.0,0.,24.0,4.,24.0,0.,24.0
1979-07-15 15:26:58.520 ,2,0,2.,24.0,0.,24.0,0.,24.0,0.,24.0
1979-07-15 15:27:22.520 ,3,1,1.,24.0,0.,24.0,1.,24.0,0.,24.0
1979-07-15 15:27:46.520 ,3,0,2.,24.0,2.,24.0,0.,24.0,0.,24.0
1979-07-15 15:28:10.520 ,4,1,0.,24.0,1.,24.0,2.,24.0,0.,24.0
1979-07-15 15:28:34.520 ,4,0,0.,24.0,1.,24.0,4.,24.0,0.,24.0
1979-07-15 15:28:58.520 ,5,1,1.,24.0,0.,24.0,4.,24.0,0.,24.0
1979-07-15 15:29:22.520 ,5,0,0.,24.0,0.,24.0,1.,24.0,0.,24.0
1979-07-15 15:29:46.520 ,6,1,1.,24.0,0.,24.0,2.,24.0,0.,24.0
1979-07-15 15:30:10.520 ,6,0,1.,24.0,0.,24.0,2.,24.0,0.,24.0
1979-07-15 15:30:34.520 ,7,0,7.,24.0,1.,24.0,2.,24.0,0.,24.0
1979-07-15 15:30:58.520 ,7,0,20.,24.0,0.,24.0,4.,24.0,0.,24.0
1979-07-15 15:31:22.520 ,5,1,15.,24.0,0.,24.0,2.,24.0,0.,24.0
1979-07-15 15:31:46.520 ,1,1,0.,24.0,0.,24.0,0.,24.0,0.,24.0
1979-07-15 15:32:10.510 ,2,1,2.,24.0,1.,24.0,4.,24.0,0.,24.0
1979-07-15 15:32:34.510 ,6,1,1.,24.0,0.,24.0,1.,24.0,0.,24.0
1979-07-15 15:32:58.510 ,5,1,15.,24.0,0.,24.0,0.,24.0,0.,24.0
1979-07-15 15:33:22.510 ,1,1,1.,24.0,0.,24.0,2.,24.0,0.,24.0
1979-07-15 15:33:46.510 ,2,1,1.,24.0,0.,24.0,6.,24.0,0.,24.0
1979-07-15 15:34:10.510 ,6,1,0.,24.0,0.,24.0,3.,24.0,0.,24.0
1979-07-15 15:34:34.510 ,5,1,12.,24.0,0.,24.0,6.,24.0,0.,24.0
1979-07-15 15:34:58.510 ,1,1,2.,24.0,0.,24.0,3.,24.0,0.,24.0
1979-07-15 15:35:22.510 ,2,1,1.,24.0,0.,24.0,4.,24.0,0.,24.0
1979-07-15 15:35:46.510 ,6,1,2.,24.0,0.,24.0,2.,24.0,0.,24.0
1979-07-15 15:36:10.510 ,5,1,17.,24.0,0.,24.0,1.,24.0,0.,24.0
1979-07-15 15:36:34.510 ,1,1,0.,24.0,0.,24.0,5.,24.0,0.,24.0
1979-07-15 15:36:58.510 ,2,1,0.,24.0,0.,24.0,1.,24.0,0.,24.0
1979-07-15 15:37:22.510 ,6,1,0.,24.0,0.,24.0,2.,24.0,0.,24.0
1979-07-15 15:37:46.510 ,5,1,11.,24.0,0.,24.0,6.,24.0,0.,24.0
1979-07-15 15:38:10.510 ,1,1,0.,24.0,0.,24.0,2.,24.0,0.,24.0
1979-07-15 15:38:34.510 ,2,1,0.,24.0,1.,24.0,2.,24.0,0.,24.0
1979-07-15 15:38:58.510 ,6,1,1.,24.0,1.,24.0,1.,24.0,0.,24.0
1979-07-15 15:39:22.510 ,5,1,12.,24.0,0.,24.0,6.,24.0,0.,24.0
1979-07-15 15:39:46.510 ,1,1,2.,24.0,0.,24.0,4.,24.0,0.,24.0
1979-07-15 15:40:10.510 ,2,1,0.,24.0,0.,24.0,5.,24.0,0.,24.0
1979-07-15 15:40:34.510 ,6,1,1.,24.0,1.,24.0,2.,24.0,0.,24.0
1979-07-15 15:40:58.510 ,5,1,10.,24.0,1.,24.0,2.,24.0,0.,24.0
1979-07-15 15:41:22.510 ,1,1,0.,24.0,0.,24.0,5.,24.0,0.,24.0
1979-07-15 15:41:46.510 ,0,0,1.,24.0,0.,24.0,4.,24.0,0.,24.0
1979-07-15 15:42:10.510 ,0,0,0.,24.0,1.,24.0,3.,24.0,0.,24.0
1979-07-15 15:42:34.510 ,5,1,20.,24.0,0.,24.0,5.,24.0,0.,24.0
1979-07-15 15:42:58.510 ,5,0,1.,24.0,0.,24.0,6.,24.0,0.,24.0
1979-07-15 15:43:22.510 ,4,1,0.,24.0,0.,24.0,2.,24.0,0.,24.0
1979-07-15 15:43:46.510 ,4,0,1.,24.0,0.,24.0,3.,24.0,0.,24.0
1979-07-15 15:44:10.510 ,3,1,2.,24.0,1.,24.0,1.,24.0,0.,24.0
1979-07-15 15:44:34.510 ,3,0,0.,24.0,0.,24.0,2.,24.0,0.,24.0
1979-07-15 15:44:58.510 ,2,1,1.,24.0,1.,24.0,3.,24.0,0.,24.0
1979-07-15 15:45:22.510 ,2,0,1.,24.0,0.,24.0,0.,24.0,0.,24.0
1979-07-15 15:45:46.510 ,1,1,2.,24.0,0.,24.0,6.,24.0,0.,24.0
1979-07-15 15:46:10.510 ,1,0,2.,24.0,0.,24.0,3.,24.0,0.,24.0
1979-07-15 15:46:34.510 ,0,1,2.,24.0,1.,24.0,5.,24.0,0.,24.0
1979-07-15 15:46:58.510 ,0,0,0.,24.0,0.,24.0,4.,24.0,0.,24.0
1979-07-15 15:47:22.510 ,0,1,1.,24.0,0.,24.0,6.,24.0,0.,24.0
1979-07-15 15:47:46.510 ,0,0,0.,24.0,0.,24.0,5.,24.0,0.,24.0
1979-07-15 15:48:10.510 ,1,1,2.,24.0,1.,24.0,4.,24.0,0.,24.0
1979-07-15 15:48:34.510 ,1,0,2.,24.0,1.,24.0,6.,24.0,0.,24.0
1979-07-15 15:48:58.510 ,2,1,2.,24.0,0.,24.0,6.,24.0,0.,24.0
1979-07-15 15:49:22.510 ,2,0,0.,24.0,0.,24.0,7.,24.0,0.,24.0
1979-07-15 15:49:46.510 ,3,1,1.,24.0,1.,24.0,6.,24.0,0.,24.0
1979-07-15 15:50:10.510 ,3,0,1.,24.0,1.,24.0,1.,24.0,0.,24.0
1979-07-15 15:50:34.510 ,4,1,0.,24.0,0.,24.0,2.,24.0,0.,24.0
1979-07-15 15:50:58.510 ,4,0,0.,24.0,0.,24.0,0.,24.0,0.,24.0
1979-07-15 15:51:22.510 ,5,1,2.,24.0,0.,24.0,8.,24.0,0.,24.0
1979-07-15 15:51:46.510 ,5,0,2.,24.0,2.,24.0,8.,24.0,0.,24.0
1979-07-15 15:52:10.510 ,6,1,0.,24.0,0.,24.0,3.,24.0,0.,24.0
1979-07-15 15:52:34.510 ,6,0,0.,24.0,1.,24.0,4.,24.0,0.,24.0
1979-07-15 15:52:58.510 ,7,1,7.,24.0,1.,24.0,5.,24.0,0.,24.0
1979-07-15 15:53:22.510 ,7,0,33.,24.0,0.,24.0,1.,24.0,0.,24.0
1979-07-15 15:53:46.510 ,7,1,23.,24.0,0.,24.0,7.,24.0,0.,24.0
1979-07-15 15:54:10.510 ,7,0,20.,24.0,0.,24.0,5.,24.0,0.,24.0
1979-07-15 15:54:34.510 ,6,1,26.,24.0,0.,24.0,4.,24.0,0.,24.0
1979-07-15 15:54:58.510 ,6,0,1.,24.0,0.,24.0,2.,24.0,0.,24.0
1979-07-15 15:55:22.510 ,5,1,0.,24.0,1.,24.0,4.,24.0,0.,24.0
1979-07-15 15:55:46.510 ,5,0,0.,24.0,0.,24.0,6.,24.0,0.,24.0
1979-07-15 15:56:10.510 ,4,1,0.,24.0,0.,24.0,1.,24.0,0.,24.0
1979-07-15 15:56:34.510 ,4,0,1.,24.0,0.,24.0,7.,24.0,0.,24.0
1979-07-15 15:56:58.510 ,3,1,1.,24.0,0.,24.0,7.,24.0,0.,24.0
1979-07-15 15:57:22.510 ,3,0,0.,24.0,0.,24.0,1.,24.0,0.,24.0
1979-07-15 15:57:46.510 ,2,1,1.,24.0,0.,24.0,0.,24.0,0.,24.0
1979-07-15 15:58:10.510 ,2,0,2.,24.0,0.,24.0,7.,24.0,0.,24.0
1979-07-15 15:58:34.510 ,1,1,0.,24.0,0.,24.0,3.,24.0,0.,24.0
1979-07-15 15:58:58.510 ,1,0,0.,24.0,0.,24.0,3.,24.0,0.,24.0
1979-07-15 15:59:22.510 ,0,1,0.,24.0,0.,24.0,1.,24.0,0.,24.0
1979-07-15 15:59:46.510 ,0,0,0.,24.0,0.,24.0,3.,24.0,0.,24.0
1979-07-15 16:00:10.510 ,0,1,1.,24.0,0.,24.0,3.,24.0,0.,24.0
1979-07-15 16:00:34.510 ,0,0,1.,24.0,0.,24.0,4.,24.0,0.,24.0
1979-07-15 16:00:58.510 ,1,1,0.,24.0,0.,24.0,1.,24.0,0.,24.0
1979-07-15 16:01:22.510 ,1,0,3.,24.0,0.,24.0,7.,24.0,0.,24.0
1979-07-15 16:01:46.510 ,2,1,3.,24.0,3.,24.0,0.,24.0,0.,24.0
1979-07-15 16:02:10.510 ,2,0,0.,24.0,1.,24.0,2.,24.0,0.,24.0
1979-07-15 16:02:34.510 ,3,1,1.,24.0,0.,24.0,5.,24.0,0.,24.0
1979-07-15 16:02:58.510 ,3,0,3.,24.0,1.,24.0,3.,24.0,0.,24.0
1979-07-15 16:03:46.510 ,4,0,1.,24.0,0.,24.0,4.,24.0,0.,24.0
1979-07-15 16:04:10.510 ,5,1,1.,24.0,1.,24.0,4.,24.0,0.,24.0
1979-07-15 16:04:34.510 ,5,0,0.,24.0,0.,24.0,5.,24.0,0.,24.0
1979-07-15 16:04:58.510 ,6,1,0.,24.0,0.,24.0,4.,24.0,0.,24.0
1979-07-15 16:05:22.510 ,6,0,0.,24.0,1.,24.0,5.,24.0,0.,24.0
1979-07-15 16:05:46.510 ,7,1,5.,24.0,0.,24.0,2.,24.0,0.,24.0
1979-07-15 16:06:10.510 ,7,0,31.,24.0,0.,24.0,4.,24.0,0.,24.0
1979-07-15 16:06:34.510 ,7,1,37.,24.0,0.,24.0,7.,24.0,0.,24.0
1979-07-15 16:06:58.510 ,7,0,27.,24.0,0.,24.0,3.,24.0,0.,24.0
1979-07-15 16:07:22.510 ,6,1,18.,24.0,0.,24.0,2.,24.0,0.,24.0
1979-07-15 16:07:46.510 ,6,0,0.,24.0,0.,24.0,0.,24.0,0.,24.0
1979-07-15 16:08:10.510 ,5,1,0.,24.0,0.,24.0,4.,24.0,0.,24.0
1979-07-15 16:08:34.510 ,5,0,0.,24.0,1.,24.0,5.,24.0,0.,24.0
1979-07-15 16:08:58.510 ,4,1,1.,24.0,0.,24.0,6.,24.0,0.,24.0
1979-07-15 16:09:22.510 ,4,0,0.,24.0,0.,24.0,4.,24.0,0.,24.0
1979-07-15 16:09:46.510 ,3,1,0.,24.0,0.,24.0,1.,24.0,0.,24.0
1979-07-15 16:10:10.510 ,3,0,0.,24.0,0.,24.0,3.,24.0,0.,24.0
1979-07-15 16:10:34.510 ,2,1,2.,24.0,0.,24.0,3.,24.0,0.,24.0
1979-07-15 16:10:58.510 ,2,0,2.,24.0,0.,24.0,1.,24.0,0.,24.0
1979-07-15 16:11:22.510 ,1,1,1.,24.0,0.,24.0,3.,24.0,0.,24.0
1979-07-15 16:11:46.510 ,1,0,0.,24.0,0.,24.0,5.,24.0,0.,24.0
1979-07-15 16:12:10.510 ,0,1,0.,24.0,0.,24.0,2.,24.0,0.,24.0
1979-07-15 16:12:34.510 ,0,0,0.,24.0,0.,24.0,7.,24.0,0.,24.0
1979-07-15 16:12:58.510 ,0,1,0.,24.0,0.,24.0,1.,24.0,0.,24.0
1979-07-15 16:13:22.510 ,0,0,1.,24.0,0.,24.0,3.,24.0,0.,24.0
1979-07-15 16:13:46.510 ,1,1,1.,24.0,0.,24.0,5.,24.0,0.,24.0
1979-07-15 16:14:10.510 ,1,0,1.,24.0,0.,24.0,3.,24.0,0.,24.0
1979-07-15 16:14:34.510 ,2,1,2.,24.0,0.,24.0,2.,24.0,0.,24.0
1979-07-15 16:14:58.510 ,2,0,3.,24.0,1.,24.0,2.,24.0,0.,24.0
1979-07-15 16:15:22.510 ,3,1,6.,24.0,0.,24.0,5.,24.0,0.,24.0
1979-07-15 16:15:46.510 ,3,0,4.,24.0,3.,24.0,2.,24.0,0.,24.0
1979-07-15 16:16:10.510 ,4,1,1.,24.0,0.,24.0,4.,24.0,0.,24.0
1979-07-15 16:16:34.510 ,4,0,2.,24.0,0.,24.0,4.,24.0,0.,24.0
1979-07-15 16:16:58.510 ,5,1,0.,24.0,1.,24.0,6.,24.0,0.,24.0
1979-07-15 16:17:22.510 ,5,0,0.,24.0,0.,24.0,6.,24.0,0.,24.0
1979-07-15 16:17:46.510 ,6,1,2.,24.0,0.,24.0,6.,24.0,0.,24.0
1979-07-15 16:18:10.510 ,6,0,1.,24.0,0.,24.0,3.,24.0,0.,24.0
1979-07-15 16:18:34.510 ,7,0,3.,24.0,0.,24.0,8.,24.0,0.,24.0
1979-07-15 16:18:58.510 ,7,0,25.,24.0,0.,24.0,5.,24.0,0.,24.0
1979-07-15 16:19:22.510 ,5,1,19.,24.0,0.,24.0,10.,24.0,0.,24.0
1979-07-15 16:19:46.510 ,1,1,1.,24.0,0.,24.0,3.,24.0,0.,24.0
1979-07-15 16:20:10.510 ,2,1,3.,24.0,1.,24.0,3.,24.0,0.,24.0
1979-07-15 16:20:34.510 ,6,1,0.,24.0,1.,24.0,7.,24.0,0.,24.0
1979-07-15 16:20:58.510 ,5,1,17.,24.0,0.,24.0,8.,24.0,0.,24.0
1979-07-15 16:21:22.510 ,1,1,2.,24.0,0.,24.0,6.,24.0,0.,24.0
1979-07-15 16:21:46.510 ,2,1,2.,24.0,0.,24.0,2.,24.0,0.,24.0
1979-07-15 16:22:10.510 ,6,1,0.,24.0,0.,24.0,7.,24.0,0.,24.0
1979-07-15 16:22:34.510 ,5,1,11.,24.0,0.,24.0,7.,24.0,0.,24.0
1979-07-15 16:22:58.510 ,1,1,3.,24.0,0.,24.0,1.,24.0,0.,24.0
1979-07-15 16:23:22.510 ,2,1,2.,24.0,0.,24.0,4.,24.0,0.,24.0
1979-07-15 16:23:46.510 ,6,1,3.,24.0,0.,24.0,4.,24.0,0.,24.0
1979-07-15 16:24:10.510 ,5,1,13.,24.0,0.,24.0,9.,24.0,0.,24.0
1979-07-15 16:24:34.510 ,1,1,5.,24.0,1.,24.0,6.,24.0,0.,24.0
1979-07-15 16:25:46.510 ,5,1,15.,24.0,1.,24.0,6.,24.0,0.,24.0
1979-07-15 16:26:10.510 ,1,1,0.,24.0,1.,24.0,2.,24.0,0.,24.0
1979-07-15 16:26:34.510 ,2,1,1.,24.0,0.,24.0,2.,24.0,0.,24.0
1979-07-15 16:26:58.510 ,6,1,3.,24.0,0.,24.0,4.,24.0,0.,24.0
1979-07-15 16:27:22.510 ,5,1,15.,24.0,0.,24.0,8.,24.0,0.,24.0
1979-07-15 16:27:46.510 ,1,1,2.,24.0,0.,24.0,3.,24.0,0.,24.0
1979-07-15 16:28:10.510 ,2,1,0.,24.0,1.,24.0,2.,24.0,0.,24.0
1979-07-15 16:28:34.510 ,6,1,1.,24.0,1.,24.0,8.,24.0,0.,24.0
1979-07-15 16:28:58.510 ,5,1,19.,24.0,0.,24.0,2.,24.0,0.,24.0
1979-07-15 16:29:22.510 ,1,1,1.,24.0,0.,24.0,2.,24.0,0.,24.0
1979-07-15 16:29:46.510 ,0,0,1.,24.0,0.,24.0,6.,24.0,0.,24.0
1979-07-15 16:30:10.510 ,0,0,1.,24.0,0.,24.0,3.,24.0,0.,24.0
1979-07-15 16:30:34.510 ,5,1,17.,24.0,0.,24.0,4.,24.0,0.,24.0
1979-07-15 16:30:58.510 ,5,0,0.,24.0,0.,24.0,4.,24.0,0.,24.0
1979-07-15 16:31:22.510 ,4,1,1.,24.0,2.,24.0,4.,24.0,0.,24.0
1979-07-15 16:31:46.510 ,4,0,0.,24.0,0.,24.0,9.,24.0,0.,24.0
1979-07-15 16:32:10.510 ,3,1,0.,24.0,0.,24.0,7.,24.0,0.,24.0
1979-07-15 16:32:34.510 ,3,0,4.,24.0,1.,24.0,2.,24.0,0.,24.0
1979-07-15 16:32:58.510 ,2,1,4.,24.0,0.,24.0,2.,24.0,0.,24.0
1979-07-15 16:33:22.510 ,2,0,2.,24.0,2.,24.0,8.,24.0,0.,24.0
1979-07-15 16:33:46.510 ,1,1,3.,24.0,0.,24.0,3.,24.0,0.,24.0
1979-07-15 16:34:10.510 ,1,0,1.,24.0,3.,24.0,6.,24.0,0.,24.0
1979-07-15 16:34:34.510 ,0,1,1.,24.0,0.,24.0,7.,24.0,0.,24.0
1979-07-15 16:34:58.510 ,0,0,2.,24.0,1.,24.0,1.,24.0,0.,24.0
1979-07-15 16:35:22.510 ,0,1,0.,24.0,1.,24.0,6.,24.0,0.,24.0
1979-07-15 16:35:46.510 ,0,0,1.,24.0,1.,24.0,9.,24.0,0.,24.0
1979-07-15 16:36:10.510 ,1,1,0.,24.0,0.,24.0,1.,24.0,0.,24.0
1979-07-15 16:36:34.510 ,1,0,2.,24.0,0.,24.0,5.,24.0,0.,24.0
1979-07-15 16:36:58.510 ,2,1,2.,24.0,0.,24.0,5.,24.0,0.,24.0
1979-07-15 16:37:22.510 ,2,0,5.,24.0,1.,24.0,5.,24.0,0.,24.0
1979-07-15 16:37:46.510 ,3,1,2.,24.0,0.,24.0,3.,24.0,0.,24.0
1979-07-15 16:38:10.510 ,3,0,2.,24.0,0.,24.0,3.,24.0,0.,24.0
1979-07-15 16:38:34.510 ,4,1,1.,24.0,0.,24.0,2.,24.0,0.,24.0
1979-07-15 16:38:58.510 ,4,0,0.,24.0,0.,24.0,4.,24.0,0.,24.0
1979-07-15 16:39:22.510 ,5,1,5.,24.0,1.,24.0,4.,24.0,0.,24.0
1979-07-15 16:39:46.510 ,5,0,0.,24.0,2.,24.0,3.,24.0,0.,24.0
1979-07-15 16:40:10.510 ,6,1,0.,24.0,0.,24.0,2.,24.0,0.,24.0
1979-07-15 16:40:34.510 ,6,0,1.,24.0,1.,24.0,4.,24.0,0.,24.0
1979-07-15 16:40:58.510 ,7,1,5.,24.0,0.,24.0,3.,24.0,0.,24.0
1979-07-15 16:41:22.510 ,7,0,29.,24.0,0.,24.0,1.,24.0,0.,24.0
1979-07-15 16:41:46.510 ,7,1,31.,24.0,0.,24.0,3.,24.0,0.,24.0
1979-07-15 16:42:10.510 ,7,0,25.,24.0,0.,24.0,3.,24.0,0.,24.0
1979-07-15 16:42:34.510 ,6,1,25.,24.0,0.,24.0,8.,24.0,0.,24.0
1979-07-15 16:42:58.510 ,6,0,1.,24.0,0.,24.0,3.,24.0,0.,24.0
1979-07-15 16:43:22.510 ,5,1,1.,24.0,0.,24.0,3.,24.0,0.,24.0
1979-07-15 16:43:46.510 ,5,0,0.,24.0,0.,24.0,8.,24.0,0.,24.0
1979-07-15 16:44:10.510 ,4,1,1.,24.0,0.,24.0,0.,24.0,0.,24.0
1979-07-15 16:44:34.510 ,4,0,1.,24.0,0.,24.0,4.,24.0,0.,24.0
1979-07-15 16:44:58.510 ,3,1,3.,24.0,1.,24.0,6.,24.0,0.,24.0
1979-07-15 16:45:22.510 ,3,0,4.,24.0,1.,24.0,1.,24.0,0.,24.0
1979-07-15 16:45:46.510 ,2,1,3.,24.0,0.,24.0,1.,24.0,0.,24.0
1979-07-15 16:46:10.510 ,2,0,5.,24.0,0.,24.0,2.,24.0,0.,24.0
1979-07-15 16:46:34.510 ,1,1,0.,24.0,0.,24.0,0.,24.0,0.,24.0
1979-07-15 16:46:58.510 ,1,0,1.,24.0,0.,24.0,4.,24.0,0.,24.0
1979-07-15 16:47:22.510 ,0,1,1.,24.0,0.,24.0,1.,24.0,0.,24.0
1979-07-15 16:47:46.510 ,0,0,0.,24.0,0.,24.0,4.,24.0,0.,24.0
1979-07-15 16:48:10.510 ,0,1,0.,24.0,0.,24.0,3.,24.0,0.,24.0
1979-07-15 16:48:34.510 ,0,0,1.,24.0,2.,24.0,5.,24.0,0.,24.0
1979-07-15 16:49:22.510 ,1,0,0.,24.0,0.,24.0,4.,24.0,0.,24.0
1979-07-15 16:49:46.510 ,2,1,2.,24.0,0.,24.0,6.,24.0,0.,24.0
1979-07-15 16:50:10.510 ,2,0,6.,24.0,1.,24.0,8.,24.0,0.,24.0
1979-07-15 16:50:34.510 ,3,1,4.,24.0,0.,24.0,2.,24.0,0.,24.0
1979-07-15 16:50:58.510 ,3,0,4.,24.0,0.,24.0,5.,24.0,0.,24.0
1979-07-15 16:51:22.510 ,4,1,0.,24.0,1.,24.0,1.,24.0,0.,24.0
1979-07-15 16:51:46.510 ,4,0,1.,24.0,0.,24.0,5.,24.0,0.,24.0
1979-07-15 16:52:10.510 ,0,0,1.,24.0,1.,24.0,1.,24.0,0.,24.0
1979-07-15 16:52:34.510 ,0,0,1.,24.0,0.,24.0,2.,24.0,0.,24.0
1979-07-15 16:52:58.510 ,6,1,2.,24.0,0.,24.0,5.,24.0,0.,24.0
1979-07-15 16:53:22.510 ,6,0,0.,24.0,1.,24.0,9.,24.0,0.,24.0
1979-07-15 16:53:46.510 ,7,1,8.,24.0,0.,24.0,4.,24.0,0.,24.0
1979-07-15 16:54:10.510 ,7,0,37.,24.0,0.,24.0,2.,24.0,0.,24.0
1979-07-15 16:54:34.510 ,7,1,23.,24.0,0.,24.0,4.,24.0,0.,24.0
1979-07-15 16:54:58.510 ,7,0,25.,24.0,0.,24.0,2.,24.0,0.,24.0
1979-07-15 16:55:22.510 ,6,1,24.,24.0,1.,24.0,6.,24.0,0.,24.0
1979-07-15 16:55:46.510 ,6,0,0.,24.0,0.,24.0,4.,24.0,0.,24.0
1979-07-15 16:56:10.510 ,5,1,0.,24.0,0.,24.0,5.,24.0,0.,24.0
1979-07-15 16:56:34.510 ,5,0,0.,24.0,0.,24.0,2.,24.0,0.,24.0
1979-07-15 16:56:58.510 ,4,1,0.,24.0,0.,24.0,1.,24.0,0.,24.0
1979-07-15 16:57:22.510 ,4,0,1.,24.0,0.,24.0,3.,24.0,0.,24.0
1979-07-15 16:57:46.510 ,3,1,0.,24.0,0.,24.0,5.,24.0,0.,24.0
1979-07-15 16:58:10.510 ,3,0,1.,24.0,2.,24.0,2.,24.0,0.,24.0
1979-07-15 16:58:34.510 ,2,1,1.,24.0,0.,24.0,1.,24.0,0.,24.0
1979-07-15 16:58:58.510 ,2,0,1.,24.0,0.,24.0,7.,24.0,0.,24.0
1979-07-15 16:59:22.510 ,1,1,1.,24.0,2.,24.0,6.,24.0,0.,24.0
1979-07-15 16:59:46.510 ,1,0,1.,24.0,1.,24.0,5.,24.0,0.,24.0
1979-07-15 17:00:10.510 ,0,1,1.,24.0,0.,24.0,6.,24.0,0.,24.0
1979-07-15 17:00:34.510 ,0,0,0.,24.0,0.,24.0,6.,24.0,0.,24.0
1979-07-15 17:00:58.510 ,0,1,0.,24.0,1.,24.0,2.,24.0,0.,24.0
1979-07-15 17:01:22.510 ,0,0,0.,24.0,2.,24.0,9.,24.0,0.,24.0
1979-07-15 17:01:46.510 ,1,1,0.,24.0,1.,24.0,3.,24.0,0.,24.0
1979-07-15 17:02:10.510 ,1,0,0.,24.0,0.,24.0,4.,24.0,0.,24.0
1979-07-15 17:02:34.510 ,2,1,2.,24.0,0.,24.0,3.,24.0,0.,24.0
1979-07-15 17:02:58.510 ,2,0,2.,24.0,2.,24.0,2.,24.0,0.,24.0
1979-07-15 17:03:22.510 ,3,1,0.,24.0,1.,24.0,1.,24.0,0.,24.0
1979-07-15 17:03:46.510 ,3,0,1.,24.0,1.,24.0,2.,24.0,0.,24.0
1979-07-15 17:04:10.510 ,4,1,2.,24.0,0.,24.0,2.,24.0,0.,24.0
1979-07-15 17:04:34.510 ,4,0,2.,24.0,2.,24.0,4.,24.0,0.,24.0
1979-07-15 17:04:58.510 ,5,1,0.,24.0,0.,24.0,3.,24.0,0.,24.0
1979-07-15 17:05:22.510 ,5,0,0.,24.0,1.,24.0,6.,24.0,0.,24.0
1979-07-15 17:05:46.510 ,6,1,3.,24.0,1.,24.0,5.,24.0,0.,24.0
1979-07-15 17:06:10.510 ,6,0,2.,24.0,1.,24.0,3.,24.0,0.,24.0
1979-07-15 17:06:34.510 ,7,0,8.,24.0,1.,24.0,5.,24.0,0.,24.0
1979-07-15 17:06:58.510 ,7,0,38.,24.0,0.,24.0,5.,24.0,0.,24.0
1979-07-15 17:07:22.510 ,5,1,,0,,0,,0,,0
1979-07-15 17:07:46.510 ,1,1,0.,24.0,0.,24.0,2.,24.0,0.,24.0
1979-07-15 17:08:10.510 ,2,1,2.,24.0,0.,24.0,5.,24.0,0.,24.0
1979-07-15 17:08:34.510 ,6,1,0.,24.0,0.,24.0,6.,24.0,0.,24.0
1979-07-15 17:08:58.510 ,5,1,16.,24.0,0.,24.0,4.,24.0,0.,24.0
1979-07-15 17:09:22.510 ,1,1,0.,24.0,0.,24.0,1.,24.0,0.,24.0
1979-07-15 17:09:46.510 ,2,1,0.,24.0,1.,24.0,3.,24.0,0.,24.0
1979-07-15 17:10:10.510 ,6,1,1.,24.0,2.,24.0,3.,24.0,0.,24.0
1979-07-15 17:10:34.510 ,5,1,12.,24.0,0.,24.0,2.,24.0,0.,24.0
1979-07-15 17:10:58.510 ,1,1,3.,24.0,3.,24.0,6.,24.0,0.,24.0
1979-07-15 17:11:22.510 ,2,1,0.,24.0,1.,24.0,1.,24.0,0.,24.0
1979-07-15 17:11:46.510 ,6,1,0.,24.0,1.,24.0,3.,24.0,0.,24.0
1979-07-15 17:12:10.510 ,5,1,27.,24.0,0.,24.0,5.,24.0,0.,24.0
1979-07-15 17:12:34.510 ,1,1,1.,24.0,1.,24.0,6.,24.0,0.,24.0
1979-07-15 17:12:58.510 ,2,1,0.,24.0,0.,24.0,8.,24.0,0.,24.0
1979-07-15 17:13:22.510 ,6,1,0.,24.0,1.,24.0,2.,24.0,0.,24.0
1979-07-15 17:13:46.510 ,5,1,15.,24.0,0.,24.0,3.,24.0,0.,24.0
1979-07-15 17:14:10.510 ,1,1,3.,24.0,0.,24.0,4.,24.0,0.,24.0
1979-07-15 17:14:34.510 ,2,1,4.,24.0,1.,24.0,1.,24.0,0.,24.0
1979-07-15 17:14:58.510 ,6,1,1.,24.0,4.,24.0,6.,24.0,0.,24.0
1979-07-15 17:15:22.510 ,5,1,16.,24.0,1.,24.0,2.,24.0,0.,24.0
1979-07-15 17:15:46.510 ,1,1,2.,24.0,0.,24.0,4.,24.0,0.,24.0
1979-07-15 17:16:10.510 ,2,1,0.,24.0,0.,24.0,3.,24.0,0.,24.0
1979-07-15 17:16:34.510 ,6,1,1.,24.0,0.,24.0,1.,24.0,0.,24.0
1979-07-15 17:16:58.510 ,5,1,21.,24.0,0.,24.0,4.,24.0,0.,24.0
1979-07-15 17:17:22.510 ,1,1,3.,24.0,0.,24.0,2.,24.0,0.,24.0
1979-07-15 17:17:46.510 ,0,0,0.,24.0,2.,24.0,2.,24.0,0.,24.0
1979-07-15 17:18:10.510 ,0,0,0.,24.0,0.,24.0,3.,24.0,0.,24.0
1979-07-15 17:18:34.510 ,5,1,19.,24.0,0.,24.0,7.,24.0,0.,24.0
1979-07-15 17:18:58.510 ,5,0,1.,24.0,0.,24.0,2.,24.0,0.,24.0
1979-07-15 17:19:22.510 ,4,1,1.,24.0,0.,24.0,5.,24.0,0.,24.0
1979-07-15 17:19:46.510 ,4,0,2.,24.0,0.,24.0,2.,24.0,0.,24.0
1979-07-15 17:20:10.510 ,3,1,0.,24.0,0.,24.0,7.,24.0,0.,24.0
1979-07-15 17:20:34.510 ,3,0,0.,24.0,0.,24.0,2.,24.0,0.,24.0
1979-07-15 17:20:58.510 ,2,1,1.,24.0,0.,24.0,1.,24.0,0.,24.0
1979-07-15 17:21:22.510 ,2,0,2.,24.0,0.,24.0,7.,24.0,0.,24.0
1979-07-15 17:21:46.510 ,1,1,2.,24.0,0.,24.0,6.,24.0,0.,24.0
1979-07-15 17:22:10.510 ,1,0,1.,24.0,1.,24.0,2.,24.0,0.,24.0
1979-07-15 17:22:34.510 ,0,1,2.,24.0,2.,24.0,5.,24.0,0.,24.0
1979-07-15 17:22:58.510 ,0,0,0.,24.0,0.,24.0,7.,24.0,0.,24.0
1979-07-15 17:23:22.510 ,0,1,1.,24.0,0.,24.0,3.,24.0,0.,24.0
1979-07-15 17:23:46.510 ,0,0,0.,24.0,1.,24.0,3.,24.0,0.,24.0
1979-07-15 17:24:10.510 ,1,1,1.,24.0,0.,24.0,2.,24.0,0.,24.0
1979-07-15 17:24:34.510 ,1,0,0.,24.0,2.,24.0,4.,24.0,0.,24.0
1979-07-15 17:24:58.510 ,2,1,0.,24.0,0.,24.0,3.,24.0,0.,24.0
1979-07-15 17:25:22.510 ,2,0,1.,24.0,0.,24.0,3.,24.0,0.,24.0
1979-07-15 17:25:46.510 ,3,1,1.,24.0,0.,24.0,3.,24.0,0.,24.0
1979-07-15 17:26:10.510 ,3,0,1.,24.0,1.,24.0,1.,24.0,0.,24.0
1979-07-15 17:26:34.510 ,4,1,0.,24.0,1.,24.0,2.,24.0,0.,24.0
1979-07-15 17:26:58.510 ,4,0,2.,24.0,1.,24.0,1.,24.0,0.,24.0
1979-07-15 17:27:22.510 ,0,0,2.,24.0,0.,24.0,3.,24.0,0.,24.0
1979-07-15 17:27:46.510 ,0,0,,0,,0,,0,,0
1979-07-15 17:27:46.510 ,0,0,,0,,0,,0,,0
1979-07-15 17:27:56.710 ,0,0,0.,24.0,0.,24.0,7.,24.0,0.,24.0
1979-07-15 17:28:10.510 ,6,1,2.,24.0,1.,24.0,4.,24.0,0.,24.0
1979-07-15 17:28:34.510 ,6,0,1.,24.0,1.,24.0,3.,24.0,0.,24.0
1979-07-15 17:28:58.510 ,7,1,8.,24.0,0.,24.0,1.,24.0,0.,24.0
1979-07-15 17:29:22.510 ,7,0,37.,24.0,0.,24.0,1.,24.0,0.,24.0
1979-07-15 17:29:46.510 ,7,1,24.,24.0,0.,24.0,4.,24.0,0.,24.0
1979-07-15 17:30:10.510 ,7,0,35.,24.0,0.,24.0,2.,24.0,0.,24.0
1979-07-15 17:30:34.510 ,6,1,16.,24.0,0.,24.0,3.,24.0,0.,24.0
1979-07-15 17:30:58.510 ,6,0,0.,24.0,1.,24.0,2.,24.0,0.,24.0
1979-07-15 17:31:22.510 ,5,1,0.,24.0,0.,24.0,5.,24.0,0.,24.0
1979-07-15 17:31:46.510 ,5,0,1.,24.0,0.,24.0,6.,24.0,0.,24.0
1979-07-15 17:32:10.510 ,0,0,2.,24.0,2.,24.0,4.,24.0,0.,24.0
1979-07-15 17:32:34.510 ,0,0,1.,24.0,0.,24.0,1.,24.0,0.,24.0
1979-07-15 17:32:58.510 ,3,1,0.,24.0,1.,24.0,3.,24.0,0.,24.0
1979-07-15 17:33:22.510 ,3,0,1.,24.0,0.,24.0,2.,24.0,0.,24.0
1979-07-15 17:33:46.510 ,2,1,1.,24.0,0.,24.0,5.,24.0,0.,24.0
1979-07-15 17:34:10.510 ,2,0,2.,24.0,0.,24.0,7.,24.0,0.,24.0
1979-07-15 17:34:34.510 ,1,1,1.,24.0,0.,24.0,3.,24.0,0.,24.0
1979-07-15 17:34:58.510 ,1,0,1.,24.0,0.,24.0,3.,24.0,0.,24.0
1979-07-15 17:35:22.510 ,0,1,1.,24.0,0.,24.0,0.,24.0,0.,24.0
1979-07-15 17:35:46.510 ,0,0,0.,24.0,0.,24.0,3.,24.0,0.,24.0
1979-07-15 17:36:10.510 ,0,1,1.,24.0,0.,24.0,5.,24.0,0.,24.0